Location: Passau
(48.5830°N, 13.4830°E)
Time: 06:55:06
(UTC+02:00)

Vanguard 1 - Pass Details

Date: 30 July 2021
Orbit: 652 x 3831 km, 34.3° (Epoch: 16 September)

Event Time Altitude Azimuth Distance (km) Brightness Sun altitude
Rises 19:09:23 0° 259° (W) 5,281 15.1 14.1°
Reaches altitude 10° 19:16:06 10° 232° (SW) 5,031 14.4 13.1°
Maximum altitude 19:20:46 12° 214° (SSW) 5,310 14.1 12.3°
Drops below altitude 10° 19:26:09 10° 196° (SSW) 5,950 14.1 11.4°
Sets 19:36:48 0° 172° (S) 7,636 14.4 9.8°
